Location: Morisset
(33.1080°S, 151.4871°E)
Time: 07:38:37
(UTC+00:00)

Hubble Space Telescope - Pass Details

Date: 29 October 2020
Orbit: 536 x 540 km, 28.5° (Epoch: 27 November)

Event Time Altitude Azimuth Distance (km) Brightness Sun altitude
Exits shadow 16:28:39 12° 61° (ENE) 1,691 3.5 -27.9°
Drops below altitude 10° 16:28:56 10° 62° (ENE) 1,792 3.6 -27.8°
Sets 16:31:19 0° 70° (ENE) 2,689 4.7 -27.5°
